Time,TemperatureF,DewpointF,PressureIn,WindDirection,WindDirectionDegrees,WindSpeedMPH,WindSpeedGustMPH,Humidity,HourlyPrecipIn,Conditions,Clouds,dailyrainin,SoftwareType,DateUTC
2013-02-10 00:01:00,25.0,20.0,-100.00,SSE,155,4.0,7.0,81,0.00,,,-99.99,,2013-02-10 05:01:00,
2013-02-10 00:11:00,25.0,20.0,-100.00,South,175,4.0,6.0,80,0.00,,,-99.99,,2013-02-10 05:11:00,
2013-02-10 00:22:00,25.0,20.0,-100.00,SE,145,5.0,7.0,79,0.00,,,-99.99,,2013-02-10 05:22:00,
2013-02-10 00:32:00,25.0,20.0,-100.00,SSE,165,4.0,7.0,79,0.00,,,-99.99,,2013-02-10 05:32:00,
2013-02-10 00:41:00,25.0,20.0,-100.00,South,170,4.0,7.0,79,0.00,,,-99.99,,2013-02-10 05:41:00,
2013-02-10 00:52:00,25.0,19.0,-100.00,South,170,4.0,7.0,77,0.00,,,-99.99,,2013-02-10 05:52:00,
2013-02-10 01:02:00,25.0,19.0,-100.00,SSE,160,5.0,8.0,76,0.00,,,-99.99,,2013-02-10 06:02:00,
2013-02-10 01:11:00,25.0,19.0,-100.00,SSE,165,4.0,7.0,75,0.00,,,-99.99,,2013-02-10 06:11:00,
2013-02-10 01:21:00,26.0,19.0,-100.00,SSE,160,6.0,9.0,74,0.00,,,-99.99,,2013-02-10 06:21:00,
2013-02-10 01:32:00,26.0,19.0,-100.00,SSE,155,6.0,9.0,73,0.00,,,-99.99,,2013-02-10 06:32:00,
2013-02-10 01:42:00,26.0,19.0,-100.00,SE,140,4.0,7.0,73,0.00,,,-99.99,,2013-02-10 06:42:00,
2013-02-10 01:51:00,26.0,19.0,-100.00,South,170,5.0,9.0,72,0.00,,,-99.99,,2013-02-10 06:51:00,
2013-02-10 02:01:00,26.0,18.0,-100.00,South,170,6.0,10.0,71,0.00,,,-99.99,,2013-02-10 07:01:00,
2013-02-10 02:11:00,26.0,18.0,-100.00,SSE,160,6.0,9.0,70,0.00,,,-99.99,,2013-02-10 07:11:00,
2013-02-10 02:21:00,27.0,18.0,-100.00,South,175,7.0,12.0,70,0.00,,,-99.99,,2013-02-10 07:21:00,
2013-02-10 02:32:00,26.0,18.0,-100.00,SSE,165,5.0,12.0,70,0.00,,,-99.99,,2013-02-10 07:32:00,
2013-02-10 02:42:00,26.0,18.0,-100.00,SSE,150,6.0,11.0,70,0.00,,,-99.99,,2013-02-10 07:42:00,
2013-02-10 02:51:00,26.0,18.0,-100.00,SE,145,7.0,11.0,69,0.00,,,-99.99,,2013-02-10 07:51:00,
2013-02-10 03:01:00,26.0,18.0,-100.00,SSE,160,7.0,11.0,69,0.00,,,-99.99,,2013-02-10 08:01:00,
2013-02-10 03:11:00,26.0,18.0,-100.00,SSE,155,6.0,11.0,69,0.00,,,-99.99,,2013-02-10 08:11:00,
2013-02-10 03:21:00,26.0,18.0,-100.00,SSE,160,6.0,12.0,68,0.00,,,-99.99,,2013-02-10 08:21:00,
2013-02-10 03:32:00,26.0,18.0,-100.00,SSE,160,7.0,11.0,68,0.00,,,-99.99,,2013-02-10 08:32:00,
2013-02-10 03:43:00,26.0,17.0,-100.00,SSE,150,7.0,14.0,68,0.00,,,-99.99,,2013-02-10 08:43:00,
2013-02-10 03:52:00,27.0,17.0,-100.00,SSE,155,9.0,13.0,67,0.00,,,-99.99,,2013-02-10 08:52:00,
2013-02-10 04:02:00,26.0,17.0,-100.00,SSE,150,7.0,12.0,67,0.00,,,-99.99,,2013-02-10 09:02:00,
2013-02-10 04:11:00,26.0,17.0,-100.00,SSE,155,6.0,12.0,68,0.00,,,-99.99,,2013-02-10 09:11:00,
2013-02-10 04:21:00,26.0,17.0,-100.00,SSE,150,7.0,12.0,68,0.00,,,-99.99,,2013-02-10 09:21:00,
2013-02-10 04:32:00,26.0,17.0,-100.00,SSE,150,7.0,13.0,68,0.00,,,-99.99,,2013-02-10 09:32:00,
2013-02-10 04:41:00,26.0,17.0,-100.00,SSE,155,6.0,11.0,68,0.00,,,-99.99,,2013-02-10 09:41:00,
2013-02-10 04:51:00,27.0,18.0,-100.00,SSE,150,9.0,13.0,67,0.00,,,-99.99,,2013-02-10 09:51:00,
2013-02-10 05:01:00,27.0,18.0,-100.00,SSE,155,9.0,12.0,67,0.00,,,-99.99,,2013-02-10 10:01:00,
2013-02-10 05:11:00,27.0,18.0,-100.00,SSE,165,8.0,13.0,67,0.00,,,-99.99,,2013-02-10 10:11:00,
2013-02-10 05:21:00,27.0,18.0,-100.00,South,175,8.0,12.0,67,0.00,,,-99.99,,2013-02-10 10:21:00,
2013-02-10 05:32:00,27.0,18.0,-100.00,SSE,160,8.0,14.0,67,0.00,,,-99.99,,2013-02-10 10:32:00,
2013-02-10 05:42:00,27.0,18.0,-100.00,SSE,150,7.0,15.0,67,0.00,,,-99.99,,2013-02-10 10:42:00,
2013-02-10 05:51:00,27.0,18.0,-100.00,SSE,150,7.0,16.0,67,0.00,,,-99.99,,2013-02-10 10:51:00,
2013-02-10 06:01:00,27.0,18.0,-100.00,SSE,150,7.0,13.0,67,0.00,,,-99.99,,2013-02-10 11:01:00,
2013-02-10 06:11:00,27.0,17.0,-100.00,SSE,150,7.0,14.0,67,0.00,,,-99.99,,2013-02-10 11:11:00,
2013-02-10 06:22:00,27.0,18.0,-100.00,South,170,8.0,13.0,67,0.00,,,-99.99,,2013-02-10 11:22:00,
2013-02-10 06:32:00,27.0,18.0,-100.00,SSE,160,7.0,12.0,67,0.00,,,-99.99,,2013-02-10 11:32:00,
2013-02-10 06:42:00,27.0,18.0,-100.00,SSE,160,6.0,12.0,67,0.00,,,-99.99,,2013-02-10 11:42:00,
2013-02-10 06:52:00,27.0,18.0,-100.00,SE,145,6.0,11.0,66,0.00,,,-99.99,,2013-02-10 11:52:00,
2013-02-10 07:02:00,28.0,18.0,-100.00,SSE,155,6.0,11.0,66,0.00,,,-99.99,,2013-02-10 12:02:00,
2013-02-10 07:12:00,28.0,18.0,-100.00,SSE,150,9.0,12.0,66,0.00,,,-99.99,,2013-02-10 12:12:00,
2013-02-10 07:21:00,27.0,18.0,-100.00,SSE,150,7.0,12.0,66,0.00,,,-99.99,,2013-02-10 12:21:00,
2013-02-10 07:32:00,27.0,18.0,-100.00,SSE,155,7.0,11.0,66,0.00,,,-99.99,,2013-02-10 12:32:00,
2013-02-10 07:42:00,27.0,18.0,-100.00,SE,140,5.0,10.0,67,0.00,,,-99.99,,2013-02-10 12:42:00,
2013-02-10 07:52:00,27.0,18.0,-100.00,SE,145,6.0,11.0,67,0.00,,,-99.99,,2013-02-10 12:52:00,
2013-02-10 08:02:00,28.0,18.0,-100.00,SE,140,6.0,11.0,66,0.00,,,-99.99,,2013-02-10 13:02:00,
2013-02-10 08:11:00,28.0,18.0,-100.00,SSE,155,7.0,9.0,66,0.00,,,-99.99,,2013-02-10 13:11:00,
2013-02-10 08:21:00,28.0,18.0,-100.00,SE,145,5.0,9.0,66,0.00,,,-99.99,,2013-02-10 13:21:00,
2013-02-10 08:31:00,28.0,18.0,-100.00,SE,135,4.0,8.0,66,0.00,,,-99.99,,2013-02-10 13:31:00,
2013-02-10 08:41:00,28.0,18.0,-100.00,ESE,115,4.0,7.0,66,0.00,,,-99.99,,2013-02-10 13:41:00,
2013-02-10 08:51:00,28.0,18.0,-100.00,SSE,150,6.0,9.0,65,0.00,,,-99.99,,2013-02-10 13:51:00,
2013-02-10 09:02:00,29.0,19.0,-100.00,SSE,155,5.0,9.0,63,0.00,,,-99.99,,2013-02-10 14:02:00,
2013-02-10 09:11:00,30.0,19.0,-100.00,SSE,160,7.0,10.0,61,0.00,,,-99.99,,2013-02-10 14:11:00,
2013-02-10 09:21:00,31.0,19.0,-100.00,SE,145,9.0,14.0,59,0.00,,,-99.99,,2013-02-10 14:21:00,
2013-02-10 09:32:00,33.0,19.0,-100.00,ESE,115,6.0,11.0,57,0.00,,,-99.99,,2013-02-10 14:32:00,
2013-02-10 09:41:00,32.0,19.0,-100.00,ESE,120,5.0,11.0,57,0.00,,,-99.99,,2013-02-10 14:41:00,
2013-02-10 09:52:00,32.0,19.0,-100.00,ESE,120,6.0,10.0,58,0.00,,,-99.99,,2013-02-10 14:52:00,
2013-02-10 10:02:00,31.0,19.0,-100.00,SE,145,7.0,11.0,58,0.00,,,-99.99,,2013-02-10 15:02:00,
2013-02-10 10:11:00,34.0,19.0,-100.00,South,185,11.0,16.0,52,0.00,,,-99.99,,2013-02-10 15:11:00,
2013-02-10 10:22:00,34.0,18.0,-100.00,South,175,9.0,19.0,51,0.00,,,-99.99,,2013-02-10 15:22:00,
2013-02-10 10:32:00,35.0,19.0,-100.00,South,180,9.0,16.0,51,0.00,,,-99.99,,2013-02-10 15:32:00,
2013-02-10 10:42:00,36.0,19.0,-100.00,South,175,11.0,17.0,48,0.00,,,-99.99,,2013-02-10 15:42:00,
2013-02-10 10:52:00,38.0,19.0,-100.00,SE,145,8.0,12.0,46,0.00,,,-99.99,,2013-02-10 15:52:00,
2013-02-10 11:02:00,39.0,19.0,-100.00,South,175,7.0,17.0,44,0.00,,,-99.99,,2013-02-10 16:02:00,
2013-02-10 11:12:00,40.0,19.0,-100.00,South,175,7.0,14.0,42,0.00,,,-99.99,,2013-02-10 16:12:00,
2013-02-10 11:22:00,41.0,19.0,-100.00,South,180,9.0,14.0,40,0.00,,,-99.99,,2013-02-10 16:22:00,
2013-02-10 11:32:00,42.0,19.0,-100.00,SSE,165,9.0,12.0,39,0.00,,,-99.99,,2013-02-10 16:32:00,
2013-02-10 11:42:00,42.0,19.0,-100.00,South,180,11.0,15.0,38,0.00,,,-99.99,,2013-02-10 16:42:00,
2013-02-10 11:52:00,43.0,18.0,-100.00,South,180,12.0,18.0,36,0.00,,,-99.99,,2013-02-10 16:52:00,
2013-02-10 12:02:00,44.0,19.0,-100.00,South,170,7.0,17.0,35,0.00,,,-99.99,,2013-02-10 17:02:00,
2013-02-10 12:11:00,45.0,19.0,-100.00,South,175,9.0,14.0,34,0.00,,,-99.99,,2013-02-10 17:11:00,
2013-02-10 12:22:00,46.0,19.0,-100.00,SSW,195,11.0,15.0,33,0.00,,,-99.99,,2013-02-10 17:22:00,
2013-02-10 12:32:00,46.0,19.0,-100.00,South,180,12.0,17.0,33,0.00,,,-99.99,,2013-02-10 17:32:00,
2013-02-10 12:42:00,47.0,19.0,-100.00,South,185,14.0,19.0,32,0.00,,,-99.99,,2013-02-10 17:42:00,
2013-02-10 12:52:00,47.0,19.0,-100.00,South,175,14.0,18.0,32,0.00,,,-99.99,,2013-02-10 17:52:00,
2013-02-10 13:02:00,47.0,19.0,-100.00,South,190,10.0,17.0,32,0.00,,,-99.99,,2013-02-10 18:02:00,
2013-02-10 13:12:00,48.0,20.0,-100.00,South,185,13.0,19.0,31,0.00,,,-99.99,,2013-02-10 18:12:00,
2013-02-10 13:22:00,48.0,20.0,-100.00,South,180,13.0,17.0,31,0.00,,,-99.99,,2013-02-10 18:22:00,
2013-02-10 13:32:00,48.0,20.0,-100.00,South,185,11.0,16.0,32,0.00,,,-99.99,,2013-02-10 18:32:00,
2013-02-10 13:42:00,47.0,20.0,-100.00,South,170,9.0,16.0,33,0.00,,,-99.99,,2013-02-10 18:42:00,
2013-02-10 13:52:00,47.0,20.0,-100.00,South,175,7.0,12.0,34,0.00,,,-99.99,,2013-02-10 18:52:00,
2013-02-10 14:02:00,47.0,20.0,-100.00,South,175,9.0,12.0,35,0.00,,,-99.99,,2013-02-10 19:02:00,
2013-02-10 14:12:00,47.0,21.0,-100.00,South,180,8.0,11.0,35,0.00,,,-99.99,,2013-02-10 19:12:00,
2013-02-10 14:22:00,47.0,21.0,-100.00,South,175,7.0,12.0,36,0.00,,,-99.99,,2013-02-10 19:22:00,
2013-02-10 14:32:00,46.0,22.0,-100.00,South,175,6.0,12.0,36,0.00,,,-99.99,,2013-02-10 19:32:00,
2013-02-10 14:42:00,46.0,21.0,-100.00,South,170,7.0,14.0,37,0.00,,,-99.99,,2013-02-10 19:42:00,
2013-02-10 14:52:00,46.0,21.0,-100.00,South,170,7.0,14.0,37,0.00,,,-99.99,,2013-02-10 19:52:00,
2013-02-10 15:02:00,46.0,21.0,-100.00,South,180,6.0,12.0,37,0.00,,,-99.99,,2013-02-10 20:02:00,
2013-02-10 15:11:00,46.0,21.0,-100.00,SSE,150,6.0,9.0,37,0.00,,,-99.99,,2013-02-10 20:11:00,
2013-02-10 15:22:00,46.0,21.0,-100.00,SE,145,6.0,11.0,37,0.00,,,-99.99,,2013-02-10 20:22:00,
2013-02-10 15:32:00,46.0,21.0,-100.00,SE,145,6.0,9.0,37,0.00,,,-99.99,,2013-02-10 20:32:00,
2013-02-10 15:42:00,45.0,21.0,-100.00,SE,145,6.0,9.0,37,0.00,,,-99.99,,2013-02-10 20:42:00,
2013-02-10 15:52:00,46.0,22.0,-100.00,SE,145,7.0,10.0,37,0.00,,,-99.99,,2013-02-10 20:52:00,
2013-02-10 16:02:00,46.0,22.0,-100.00,South,180,6.0,11.0,37,0.00,,,-99.99,,2013-02-10 21:02:00,
2013-02-10 16:11:00,46.0,21.0,-100.00,South,170,7.0,12.0,37,0.00,,,-99.99,,2013-02-10 21:11:00,
2013-02-10 16:22:00,46.0,21.0,-100.00,SSE,150,7.0,11.0,37,0.00,,,-99.99,,2013-02-10 21:22:00,
2013-02-10 16:32:00,46.0,21.0,-100.00,SSE,150,6.0,11.0,37,0.00,,,-99.99,,2013-02-10 21:32:00,
2013-02-10 16:42:00,46.0,21.0,-100.00,SSE,150,7.0,11.0,38,0.00,,,-99.99,,2013-02-10 21:42:00,
2013-02-10 16:52:00,46.0,21.0,-100.00,SSE,155,5.0,12.0,38,0.00,,,-99.99,,2013-02-10 21:52:00,
2013-02-10 17:02:00,45.0,22.0,-100.00,SE,145,6.0,11.0,38,0.00,,,-99.99,,2013-02-10 22:02:00,
2013-02-10 17:11:00,45.0,22.0,-100.00,SSE,155,6.0,10.0,38,0.00,,,-99.99,,2013-02-10 22:11:00,
2013-02-10 17:22:00,45.0,21.0,-100.00,SE,135,6.0,10.0,38,0.00,,,-99.99,,2013-02-10 22:22:00,
2013-02-10 17:32:00,45.0,21.0,-100.00,SE,145,6.0,11.0,39,0.00,,,-99.99,,2013-02-10 22:32:00,
2013-02-10 17:42:00,45.0,21.0,-100.00,SE,135,7.0,11.0,39,0.00,,,-99.99,,2013-02-10 22:42:00,
2013-02-10 17:52:00,44.0,21.0,-100.00,SSE,150,6.0,11.0,39,0.00,,,-99.99,,2013-02-10 22:52:00,
2013-02-10 18:02:00,44.0,22.0,-100.00,SSE,150,7.0,10.0,40,0.00,,,-99.99,,2013-02-10 23:02:00,
2013-02-10 18:11:00,44.0,22.0,-100.00,SE,130,7.0,15.0,40,0.00,,,-99.99,,2013-02-10 23:11:00,
2013-02-10 18:22:00,44.0,22.0,-100.00,SE,145,6.0,12.0,41,0.00,,,-99.99,,2013-02-10 23:22:00,
2013-02-10 18:32:00,44.0,22.0,-100.00,SE,135,8.0,12.0,41,0.00,,,-99.99,,2013-02-10 23:32:00,
2013-02-10 18:42:00,45.0,22.0,-100.00,SSE,160,9.0,14.0,41,0.00,,,-99.99,,2013-02-10 23:42:00,
2013-02-10 18:52:00,44.0,22.0,-100.00,SSE,150,7.0,16.0,41,0.00,,,-99.99,,2013-02-10 23:52:00,
2013-02-10 19:02:00,45.0,22.0,-100.00,SSE,150,9.0,16.0,40,0.00,,,-99.99,,2013-02-11 00:02:00,
2013-02-10 19:11:00,45.0,23.0,-100.00,SE,145,10.0,18.0,40,0.00,,,-99.99,,2013-02-11 00:11:00,
2013-02-10 19:22:00,45.0,22.0,-100.00,SSE,160,10.0,16.0,40,0.00,,,-99.99,,2013-02-11 00:22:00,
2013-02-10 19:32:00,45.0,22.0,-100.00,SSE,165,7.0,14.0,40,0.00,,,-99.99,,2013-02-11 00:32:00,
2013-02-10 19:42:00,45.0,22.0,-100.00,SSE,150,8.0,14.0,40,0.00,,,-99.99,,2013-02-11 00:42:00,
2013-02-10 19:51:00,45.0,23.0,-100.00,SSE,150,9.0,16.0,40,0.00,,,-99.99,,2013-02-11 00:51:00,
2013-02-10 20:01:00,45.0,23.0,-100.00,SE,145,7.0,16.0,40,0.00,,,-99.99,,2013-02-11 01:01:00,
2013-02-10 20:11:00,45.0,23.0,-100.00,SE,140,9.0,17.0,40,0.00,,,-99.99,,2013-02-11 01:11:00,
2013-02-10 20:21:00,45.0,23.0,-100.00,SE,140,12.0,17.0,40,0.00,,,-99.99,,2013-02-11 01:21:00,
2013-02-10 20:32:00,45.0,23.0,-100.00,SE,145,7.0,16.0,40,0.00,,,-99.99,,2013-02-11 01:32:00,
2013-02-10 20:42:00,45.0,23.0,-100.00,SE,125,6.0,13.0,41,0.00,,,-99.99,,2013-02-11 01:42:00,
2013-02-10 20:52:00,45.0,23.0,-100.00,SE,145,7.0,14.0,41,0.00,,,-99.99,,2013-02-11 01:52:00,
2013-02-10 21:01:00,45.0,23.0,-100.00,SE,145,6.0,13.0,41,0.00,,,-99.99,,2013-02-11 02:01:00,
2013-02-10 21:11:00,45.0,23.0,-100.00,SSE,150,7.0,12.0,41,0.00,,,-99.99,,2013-02-11 02:11:00,
2013-02-10 21:21:00,46.0,23.0,-100.00,SE,145,7.0,14.0,41,0.00,,,-99.99,,2013-02-11 02:21:00,
2013-02-10 21:32:00,46.0,23.0,-100.00,SE,140,9.0,15.0,41,0.00,,,-99.99,,2013-02-11 02:32:00,
2013-02-10 21:42:00,46.0,24.0,-100.00,SSE,150,10.0,17.0,41,0.00,,,-99.99,,2013-02-11 02:42:00,
2013-02-10 21:52:00,46.0,24.0,-100.00,SE,145,9.0,17.0,41,0.00,,,-99.99,,2013-02-11 02:52:00,
2013-02-10 22:02:00,46.0,24.0,-100.00,SSE,160,8.0,15.0,41,0.00,,,-99.99,,2013-02-11 03:02:00,
2013-02-10 22:11:00,46.0,24.0,-100.00,SSE,150,8.0,14.0,41,0.00,,,-99.99,,2013-02-11 03:11:00,
2013-02-10 22:21:00,47.0,24.0,-100.00,South,175,12.0,19.0,40,0.00,,,-99.99,,2013-02-11 03:21:00,
2013-02-10 22:32:00,48.0,24.0,-100.00,South,170,12.0,19.0,39,0.00,,,-99.99,,2013-02-11 03:32:00,
2013-02-10 22:42:00,49.0,26.0,-100.00,South,180,16.0,25.0,40,0.00,,,-99.99,,2013-02-11 03:42:00,
2013-02-10 22:52:00,49.0,26.0,-100.00,South,175,14.0,27.0,40,0.00,,,-99.99,,2013-02-11 03:52:00,
2013-02-10 23:02:00,48.0,26.0,-100.00,South,180,20.0,26.0,41,0.00,,,-99.99,,2013-02-11 04:02:00,
2013-02-10 23:11:00,48.0,28.0,-100.00,South,185,20.0,25.0,44,0.00,,,-99.99,,2013-02-11 04:11:00,
2013-02-10 23:21:00,47.0,29.0,-100.00,South,175,17.0,24.0,47,0.00,,,-99.99,,2013-02-11 04:21:00,
2013-02-10 23:32:00,47.0,30.0,-100.00,South,185,17.0,26.0,51,0.00,,,-99.99,,2013-02-11 04:32:00,
2013-02-10 23:42:00,47.0,31.0,-100.00,South,185,16.0,31.0,53,0.00,,,-99.99,,2013-02-11 04:42:00,
2013-02-10 23:51:00,46.0,32.0,-100.00,South,170,14.0,29.0,57,0.00,,,-99.99,,2013-02-11 04:51:00,